| time (UTC) | temp F | wind direction | speed knots | gust knots | rain 1hr in | rain 24hr in | rain mn in | humidity % | barometer mb |
| 20260510020114 | 63 | 212 | 14.8 | 20.0 | 0.00 | 0.02 | 0.02 | 76 | 1004.1 |
| 20260510015109 | 62 | 203 | 13.9 | 20.0 | 0.00 | 0.02 | 0.02 | 79 | 1004.1 |
| 20260510014106 | 62 | 229 | 16.5 | 22.6 | 0.00 | 0.02 | 0.02 | 78 | 1004.2 |
| 20260510013103 | 62 | 228 | 13.9 | 22.6 | 0.00 | 0.02 | 0.02 | 78 | 1004.2 |
| 20260510012059 | 63 | 203 | 14.8 | 20.0 | 0.00 | 0.02 | 0.02 | 77 | 1004.1 |
| 20260510011054 | 63 | 207 | 13.9 | 21.7 | 0.00 | 0.02 | 0.02 | 79 | 1004.1 |
| 20260510010051 | 61 | 229 | 13.0 | 20.0 | 0.00 | 0.02 | 0.02 | 81 | 1004.1 |
| 20260510005047 | 61 | 207 | 14.8 | 20.0 | 0.00 | 0.02 | 0.02 | 82 | 1004.2 |
| 20260510004046 | 61 | 221 | 14.8 | 23.5 | 0.00 | 0.02 | 0.02 | 82 | 1004.2 |
| 20260510003042 | 62 | 216 | 13.0 | 23.5 | 0.00 | 0.02 | 0.02 | 81 | 1004.4 |
| 20260510002058 | 62 | 217 | 11.3 | 17.4 | 0.00 | 0.02 | 0.02 | 82 | 1004.2 |
| 20260510001033 | 61 | 232 | 10.4 | 13.9 | 0.00 | 0.02 | 0.02 | 81 | 1004.3 |
| 20260510000030 | 61 | 217 | 10.4 | 15.6 | 0.00 | 0.02 | 0.02 | 81 | 1004.4 |
| 20260509235048 | 62 | 205 | 9.6 | 13.9 | 0.00 | 0.02 | 0.02 | 81 | 1004.6 |
| 20260509234046 | 61 | 230 | 10.4 | 19.1 | 0.00 | 0.02 | 0.02 | 78 | 1004.6 |
| 20260509233020 | 61 | 251 | 12.2 | 18.2 | 0.00 | 0.02 | 0.02 | 77 | 1004.5 |
| 20260509232016 | 62 | 212 | 10.4 | 15.6 | 0.00 | 0.02 | 0.02 | 77 | 1004.5 |
| 20260509231113 | 63 | 236 | 11.3 | 18.2 | 0.00 | 0.02 | 0.02 | 79 | 1004.5 |
| 20260509230153 | 63 | 204 | 10.4 | 15.6 | 0.00 | 0.02 | 0.02 | 82 | 1004.7 |
| 20260509225108 | 60 | 226 | 7.8 | 13.0 | 0.00 | 0.02 | 0.02 | 83 | 1004.8 |
| 20260509223100 | 61 | 221 | 11.3 | 15.6 | 0.00 | 0.02 | 0.02 | 84 | 1004.7 |
| 20260509222118 | 62 | 222 | 12.2 | 17.4 | 0.00 | 0.04 | 0.02 | 90 | 1004.8 |
| 20260509221052 | 61 | 230 | 13.9 | 20.9 | 0.00 | 0.04 | 0.02 | 94 | 1004.7 |
| 20260509220048 | 59 | 243 | 11.3 | 18.2 | 0.00 | 0.04 | 0.02 | 95 | 1004.7 |
| 20260509215045 | 59 | 215 | 7.0 | 13.9 | 0.00 | 0.05 | 0.02 | 97 | 1004.8 |
| 20260509214041 | 60 | 213 | 7.8 | 11.3 | 0.00 | 0.05 | 0.02 | 99 | 1004.7 |
| 20260509213038 | 58 | 201 | 8.7 | 12.2 | 0.00 | 0.05 | 0.02 | 99 | 1004.8 |
| 20260509212034 | 58 | 220 | 9.6 | 14.8 | 0.00 | 0.05 | 0.02 | 99 | 1004.7 |
| 20260509211053 | 58 | 217 | 5.2 | 7.0 | 0.00 | 0.05 | 0.02 | 99 | 1004.7 |
| 20260509210027 | 57 | 246 | 6.1 | 9.6 | 0.00 | 0.05 | 0.02 | 99 | 1004.8 |
| 20260509205044 | 56 | 213 | 7.0 | 13.0 | 0.00 | 0.05 | 0.02 | 98 | 1004.7 |
| 20260509204023 | 56 | 225 | 6.1 | 8.7 | 0.00 | 0.05 | 0.02 | 98 | 1004.5 |
| 20260509203017 | 55 | 221 | 5.2 | 8.7 | 0.00 | 0.05 | 0.02 | 98 | 1004.5 |
| 20260509202135 | 55 | 213 | 3.5 | 7.8 | 0.00 | 0.05 | 0.02 | 97 | 1004.4 |
| 20260509201110 | 54 | 180 | 1.7 | 3.5 | 0.00 | 0.05 | 0.02 | 99 | 1004.2 |
| 20260509200108 | 54 | 180 | 2.6 | 5.2 | 0.00 | 0.05 | 0.02 | 99 | 1004.0 |
| 20260509195105 | 54 | 232 | 4.3 | 7.0 | 0.00 | 0.05 | 0.02 | 99 | 1004.0 |
| 20260509194102 | 54 | 229 | 7.0 | 12.2 | 0.00 | 0.05 | 0.02 | 99 | 1003.9 |
| 20260509193056 | 54 | 227 | 6.1 | 13.0 | 0.00 | 0.05 | 0.02 | 99 | 1003.8 |
| 20260509192053 | 54 | 180 | 1.7 | 3.5 | 0.00 | 0.05 | 0.02 | 99 | 1003.5 |
| 20260509191052 | 54 | 180 | 3.5 | 6.1 | 0.00 | 0.05 | 0.02 | 99 | 1003.6 |
| 20260509190046 | 54 | 220 | 1.7 | 3.5 | 0.00 | 0.05 | 0.02 | 99 | 1003.5 |
| 20260509185042 | 54 | 225 | 1.7 | 3.5 | 0.00 | 0.05 | 0.02 | 98 | 1003.4 |
| 20260509184040 | 53 | 207 | 2.6 | 4.3 | 0.00 | 0.05 | 0.02 | 98 | 1003.5 |
| 20260509183035 | 53 | 215 | 2.6 | 5.2 | 0.00 | 0.05 | 0.02 | 98 | 1003.5 |
| 20260509182032 | 54 | 203 | 5.2 | 8.7 | 0.00 | 0.05 | 0.02 | 98 | 1003.5 |
| 20260509181028 | 54 | 201 | 5.2 | 7.0 | 0.00 | 0.05 | 0.02 | 98 | 1003.5 |
| 20260509180026 | 54 | 214 | 6.1 | 7.8 | 0.00 | 0.06 | 0.02 | 98 | 1003.4 |
| 20260509175022 | 54 | 262 | 7.0 | 9.6 | 0.00 | 0.06 | 0.02 | 98 | 1003.3 |
| 20260509174017 | 54 | 222 | 5.2 | 8.7 | 0.00 | 0.06 | 0.02 | 98 | 1003.3 |
| 20260509173135 | 53 | 220 | 2.6 | 7.8 | 0.00 | 0.06 | 0.02 | 97 | 1003.2 |
| 20260509172111 | 53 | 225 | 2.6 | 5.2 | 0.00 | 0.06 | 0.02 | 98 | 1003.2 |
| 20260509171109 | 53 | 228 | 5.2 | 9.6 | 0.00 | 0.06 | 0.02 | 97 | 1003.2 |
| 20260509170106 | 53 | 242 | 2.6 | 7.0 | 0.00 | 0.06 | 0.02 | 97 | 1003.1 |
| 20260509165101 | 53 | 251 | 2.6 | 4.3 | 0.00 | 0.06 | 0.02 | 97 | 1003.1 |
| 20260509164057 | 53 | 222 | 2.6 | 3.5 | 0.00 | 0.06 | 0.02 | 97 | 1003.1 |
| 20260509163114 | 53 | 194 | 1.7 | 3.5 | 0.00 | 0.06 | 0.02 | 97 | 1003.0 |
| 20260509162115 | 53 | 188 | 2.6 | 6.1 | 0.00 | 0.06 | 0.02 | 97 | 1003.2 |
| 20260509161046 | 53 | 232 | 3.5 | 6.1 | 0.00 | 0.06 | 0.02 | 97 | 1003.2 |
| 20260509160042 | 53 | 248 | 0.9 | 4.3 | 0.00 | 0.06 | 0.02 | 97 | 1003.2 |
| 20260509155041 | 53 | 226 | 2.6 | 5.2 | 0.02 | 0.06 | 0.02 | 97 | 1003.2 |
| 20260509154036 | 53 | 214 | 4.3 | 9.6 | 0.02 | 0.06 | 0.02 | 97 | 1003.2 |
| 20260509153032 | 53 | 236 | 8.7 | 13.9 | 0.02 | 0.06 | 0.02 | 97 | 1003.5 |
| 20260509152028 | 53 | 199 | 3.5 | 10.4 | 0.02 | 0.06 | 0.02 | 97 | 1003.5 |
| 20260509151025 | 54 | 231 | 4.3 | 7.0 | 0.02 | 0.06 | 0.02 | 97 | 1003.5 |
| 20260509150021 | 53 | 234 | 4.3 | 13.0 | 0.02 | 0.06 | 0.02 | 97 | 1003.5 |
| 20260509145018 | 53 | 232 | 0.0 | 1.7 | 0.00 | 0.04 | 0.00 | 97 | 1003.6 |
| 20260509144114 | 54 | 221 | 1.7 | 3.5 | 0.00 | 0.04 | 0.00 | 97 | 1003.6 |
| 20260509143153 | 54 | 233 | 2.6 | 4.3 | 0.00 | 0.04 | 0.00 | 97 | 1003.8 |
| 20260509142108 | 54 | 236 | 2.6 | 6.1 | 0.00 | 0.04 | 0.00 | 96 | 1003.8 |
| 20260509141104 | 54 | 237 | 1.7 | 3.5 | 0.00 | 0.04 | 0.00 | 96 | 1003.8 |
| 20260509140122 | 54 | 279 | 0.9 | 2.6 | 0.00 | 0.04 | 0.00 | 96 | 1003.9 |
| 20260509135120 | 53 | 291 | 1.7 | 3.5 | 0.00 | 0.04 | 0.00 | 95 | 1003.8 |
| 20260509134054 | 53 | 305 | 1.7 | 3.5 | 0.00 | 0.04 | 0.00 | 94 | 1003.7 |
| 20260509133050 | 54 | 270 | 2.6 | 3.5 | 0.00 | 0.04 | 0.00 | 94 | 1003.7 |
| 20260509132046 | 53 | 280 | 2.6 | 4.3 | 0.00 | 0.04 | 0.00 | 93 | 1003.8 |
| 20260509131042 | 52 | 261 | 1.7 | 3.5 | 0.00 | 0.04 | 0.00 | 92 | 1003.9 |
| 20260509130040 | 52 | 142 | 0.9 | 2.6 | 0.00 | 0.04 | 0.00 | 92 | 1003.8 |
| 20260509125036 | 53 | 213 | 2.6 | 4.3 | 0.00 | 0.04 | 0.00 | 92 | 1003.7 |
| 20260509124032 | 53 | 229 | 3.5 | 7.0 | 0.00 | 0.04 | 0.00 | 91 | 1003.8 |
| 20260509123029 | 53 | 231 | 2.6 | 6.1 | 0.00 | 0.04 | 0.00 | 91 | 1003.8 |
| 20260509122025 | 52 | 209 | 2.6 | 5.2 | 0.00 | 0.04 | 0.00 | 90 | 1003.8 |
| 20260509121022 | 52 | 261 | 1.7 | 9.6 | 0.00 | 0.04 | 0.00 | 90 | 1003.9 |
| 20260509120018 | 52 | 176 | 1.7 | 3.5 | 0.00 | 0.04 | 0.00 | 89 | 1004.0 |
| 20260509115119 | 52 | 217 | 1.7 | 3.5 | 0.00 | 0.04 | 0.04 | 88 | 1004.0 |
| 20260509114111 | 52 | 180 | 2.6 | 6.1 | 0.00 | 0.05 | 0.04 | 87 | 1004.0 |
| 20260509113108 | 51 | 190 | 1.7 | 6.1 | 0.00 | 0.05 | 0.04 | 86 | 1004.0 |
| 20260509112147 | 52 | 135 | 1.7 | 2.6 | 0.00 | 0.05 | 0.04 | 86 | 1004.0 |
| 20260509111101 | 52 | 121 | 0.9 | 2.6 | 0.00 | 0.05 | 0.04 | 85 | 1004.1 |
| 20260509110058 | 52 | 143 | 0.9 | 1.7 | 0.00 | 0.05 | 0.04 | 85 | 1004.2 |
| 20260509105115 | 52 | 79 | 0.9 | 1.7 | 0.00 | 0.05 | 0.04 | 85 | 1004.0 |
| 20260509104050 | 53 | 165 | 0.9 | 1.7 | 0.00 | 0.05 | 0.04 | 85 | 1004.0 |
| 20260509103049 | 53 | 180 | 0.0 | 1.7 | 0.00 | 0.05 | 0.04 | 85 | 1004.0 |
| 20260509102045 | 53 | 0.0 | 0.9 | 0.00 | 0.05 | 0.04 | 85 | 1004.0 | |
| 20260509101040 | 53 | 0.0 | 0.9 | 0.00 | 0.05 | 0.04 | 84 | 1004.1 | |
| 20260509100037 | 53 | 252 | 0.0 | 1.7 | 0.00 | 0.05 | 0.04 | 84 | 1004.0 |
| 20260509095034 | 53 | 245 | 0.9 | 2.6 | 0.00 | 0.05 | 0.04 | 85 | 1003.8 |
| 20260509094031 | 53 | 229 | 0.9 | 1.7 | 0.00 | 0.05 | 0.04 | 85 | 1003.8 |
| 20260509093029 | 53 | 264 | 0.9 | 3.5 | 0.00 | 0.05 | 0.04 | 84 | 1003.7 |
| 20260509092023 | 53 | 252 | 0.0 | 1.7 | 0.00 | 0.06 | 0.04 | 85 | 1003.6 |
| 20260509091021 | 53 | 90 | 0.9 | 1.7 | 0.00 | 0.09 | 0.04 | 85 | 1003.6 |
| 20260509090036 | 53 | 65 | 0.9 | 2.6 | 0.00 | 0.18 | 0.04 | 86 | 1003.7 |
| 20260509085112 | 53 | 96 | 0.9 | 2.6 | 0.00 | 0.25 | 0.04 | 86 | 1003.7 |
| 20260509084129 | 52 | 82 | 0.9 | 2.6 | 0.00 | 0.33 | 0.04 | 85 | 1003.7 |
| 20260509083106 | 52 | 90 | 1.7 | 3.5 | 0.00 | 0.41 | 0.04 | 85 | 1003.7 |
| 20260509082124 | 52 | 125 | 0.9 | 2.6 | 0.00 | 0.43 | 0.04 | 85 | 1003.6 |
| 20260509081100 | 53 | 170 | 0.9 | 1.7 | 0.00 | 0.43 | 0.04 | 86 | 1003.6 |
| 20260509080055 | 54 | 196 | 2.6 | 4.3 | 0.00 | 0.43 | 0.04 | 86 | 1003.7 |
| 20260509075052 | 55 | 222 | 1.7 | 4.3 | 0.00 | 0.43 | 0.04 | 85 | 1003.6 |
| 20260509074048 | 55 | 254 | 0.0 | 1.7 | 0.00 | 0.46 | 0.04 | 84 | 1003.9 |
| 20260509073108 | 55 | 225 | 0.9 | 3.5 | 0.00 | 0.51 | 0.04 | 84 | 1003.7 |
| 20260509072041 | 55 | 225 | 2.6 | 5.2 | 0.00 | 0.54 | 0.04 | 83 | 1003.5 |
| 20260509071037 | 55 | 221 | 0.9 | 4.3 | 0.00 | 0.54 | 0.04 | 83 | 1003.5 |
| 20260509070035 | 55 | 207 | 0.0 | 1.7 | 0.00 | 0.54 | 0.04 | 83 | 1003.5 |
| 20260509065031 | 55 | 215 | 0.9 | 1.7 | 0.00 | 0.54 | 0.04 | 82 | 1003.3 |
| 20260509064110 | 55 | 233 | 2.6 | 3.5 | 0.00 | 0.57 | 0.04 | 82 | 1003.2 |
| 20260509063024 | 55 | 231 | 1.7 | 3.5 | 0.00 | 0.59 | 0.04 | 82 | 1003.1 |
| 20260509062022 | 56 | 225 | 0.9 | 6.1 | 0.00 | 0.59 | 0.04 | 82 | 1003.1 |
| 20260509061016 | 56 | 225 | 0.9 | 2.6 | 0.00 | 0.59 | 0.04 | 82 | 1002.9 |
| 20260509060114 | 56 | 235 | 2.6 | 6.1 | 0.00 | 0.59 | 0.04 | 82 | 1002.9 |
| 20260509055109 | 56 | 229 | 3.5 | 7.0 | 0.00 | 0.59 | 0.04 | 83 | 1002.8 |
| 20260509054106 | 57 | 234 | 3.5 | 7.0 | 0.00 | 0.59 | 0.04 | 83 | 1002.8 |
| 20260509053104 | 57 | 244 | 3.5 | 7.8 | 0.00 | 0.59 | 0.04 | 82 | 1002.7 |
| 20260509052059 | 58 | 242 | 1.7 | 4.3 | 0.00 | 0.61 | 0.04 | 82 | 1002.7 |
| 20260509051056 | 58 | 205 | 1.7 | 6.1 | 0.00 | 0.61 | 0.04 | 81 | 1002.7 |
| 20260509050052 | 58 | 255 | 1.7 | 3.5 | 0.00 | 0.61 | 0.04 | 80 | 1002.8 |
| 20260509045048 | 59 | 243 | 1.7 | 3.5 | 0.00 | 0.63 | 0.04 | 79 | 1002.8 |
| 20260509044046 | 60 | 289 | 2.6 | 7.0 | 0.00 | 0.63 | 0.04 | 78 | 1002.9 |
| 20260509043044 | 61 | 271 | 4.3 | 7.8 | 0.00 | 0.64 | 0.04 | 79 | 1002.9 |
| 20260509042038 | 62 | 255 | 1.7 | 4.3 | 0.00 | 0.65 | 0.04 | 81 | 1002.9 |
| 20260509041034 | 61 | 278 | 1.7 | 4.3 | 0.00 | 0.65 | 0.04 | 80 | 1002.8 |
| 20260509040052 | 61 | 259 | 2.6 | 4.3 | 0.00 | 0.65 | 0.04 | 81 | 1002.9 |
| 20260509035028 | 61 | 267 | 4.3 | 7.8 | 0.00 | 0.66 | 0.04 | 81 | 1002.9 |
| 20260509034024 | 63 | 238 | 4.3 | 9.6 | 0.00 | 0.66 | 0.04 | 84 | 1002.9 |
| 20260509033021 | 61 | 247 | 3.5 | 7.0 | 0.00 | 0.66 | 0.04 | 84 | 1002.8 |
| 20260509032017 | 60 | 248 | 2.6 | 6.1 | 0.00 | 0.66 | 0.04 | 83 | 1002.9 |
| 20260509031135 | 60 | 301 | 5.2 | 10.4 | 0.00 | 0.66 | 0.04 | 83 | 1003.1 |
| 20260509030111 | 60 | 297 | 6.1 | 10.4 | 0.00 | 0.66 | 0.04 | 83 | 1003.2 |
| 20260509025107 | 60 | 308 | 6.1 | 12.2 | 0.00 | 0.66 | 0.04 | 84 | 1003.1 |
| 20260509024103 | 61 | 247 | 3.5 | 6.1 | 0.00 | 0.66 | 0.04 | 85 | 1003.2 |
| 20260509023059 | 61 | 245 | 4.3 | 9.6 | 0.00 | 0.66 | 0.04 | 85 | 1003.1 |
| 20260509022055 | 60 | 261 | 4.3 | 7.8 | 0.00 | 0.66 | 0.04 | 85 | 1003.1 |
| 20260509021052 | 61 | 281 | 4.3 | 8.7 | 0.00 | 0.66 | 0.04 | 85 | 1003.2 |